M I D A S
Marine Information and Data Acquisition System
Tripno 148 of the Zeeleeuw from 2001-08-13 06:59:03 to 2001-08-13 17:40:00
Back to CruiseResearch ActivitiesStationsMapUnderway DataData graphs

EquipmentUnitsComments
TimeDGPSUTC
LatitudeDGPSDM.mWGS84
LongitudeDGPSDM.mWGS84
SpeedMeteo Stationm/sRelative wind speed
DirectionMeteo StationdegRelative wind direction
TemperatureMeteo Stationdeg CelciusAir temperature
PressureMeteo StationPaAtmospheric pressure
HumidityMeteo Station%Relative humidity
Missing or incorrect values are displayed as -999
Metereological data collected by the RV Zeeleeuw from 2001-08-13 06:59:03 to 2001-08-13 17:40:00
                                                                                    Next 1000 lines
Time Latitude Longitude Speed Direction Temperature Pressure Humidity
2001-08-13 06:59:13 51°13.677 2°55.924 7.4 264 18.2 101330 79
2001-08-13 06:59:19 51°13.677 2°55.924 7.5 228 18.2 101330 79
2001-08-13 06:59:23 51°13.677 2°55.924 6.6 227 18.2 101330 79
2001-08-13 06:59:30 51°13.677 2°55.924 5.4 221 18.2 101330 79
2001-08-13 06:59:34 51°13.677 2°55.924 5 225 18.2 101330 79
2001-08-13 06:59:40 51°13.677 2°55.924 5.9 225 18.2 101330 79
2001-08-13 06:59:44 51°13.677 2°55.924 8 223 18.1 101320 78
2001-08-13 06:59:50 51°13.677 2°55.924 5.8 221 18.1 101320 78
2001-08-13 06:59:55 51°13.677 2°55.924 7.5 237 18.1 101320 78
2001-08-13 07:00:00 51°13.677 2°55.924 7.1 221 18.1 101320 78
2001-08-13 07:00:04 51°13.677 2°55.924 8.4 239 18.1 101330 79
2001-08-13 07:00:10 51°13.677 2°55.924 6.5 238 18.1 101330 79
2001-08-13 07:00:14 51°13.677 2°55.924 6.6 248 18.1 101330 78
2001-08-13 07:00:20 51°13.677 2°55.924 7.1 221 18.1 101330 78
2001-08-13 07:00:24 51°13.677 2°55.924 6.2 207 18.1 101320 78
2001-08-13 07:00:30 51°13.677 2°55.924 6.9 228 18.1 101320 78
2001-08-13 07:00:35 51°13.676 2°55.924 2.6 223 18.1 101320 79
2001-08-13 07:00:40 51°13.676 2°55.924 6.7 229 18.1 101320 79
2001-08-13 07:00:44 51°13.676 2°55.924 6.1 209 18.1 101320 79
2001-08-13 07:00:50 51°13.676 2°55.924 6.1 209 18.1 101320 79
2001-08-13 07:00:55 51°13.676 2°55.924 6.1 209 18.1 101320 79
2001-08-13 07:01:00 51°13.676 2°55.924 6.1 209 18.1 101320 79
2001-08-13 07:01:05 51°13.676 2°55.924 6.1 209 18.1 101320 79
2001-08-13 07:01:10 51°13.676 2°55.924 6.1 209 18.1 101320 79
2001-08-13 07:01:15 51°13.676 2°55.924 6.1 209 18.1 101320 79
2001-08-13 07:01:20 51°13.676 2°55.924 6.1 209 18.1 101320 79
2001-08-13 07:01:44 51°13.676 2°55.924 5.6 215 18.1 -999 77
2001-08-13 07:01:50 51°13.677 2°55.924 5.1 220 18.1 -999 77
2001-08-13 07:01:54 51°13.677 2°55.924 5.4 214 18.1 -999 79
2001-08-13 07:02:00 51°13.677 2°55.924 5.4 193 18.1 -999 79
2001-08-13 07:02:04 51°13.677 2°55.923 6 205 18.1 101320 79
2001-08-13 07:02:10 51°13.677 2°55.923 4.3 211 18.1 101320 79
2001-08-13 07:02:15 51°13.677 2°55.924 5.3 224 18.1 101330 79
2001-08-13 07:02:20 51°13.677 2°55.924 5.2 222 18.1 101330 79
2001-08-13 07:02:24 51°13.677 2°55.924 3.9 224 18.1 101320 79
2001-08-13 07:02:30 51°13.677 2°55.924 5.8 230 18.1 101320 79
2001-08-13 07:02:34 51°13.677 2°55.924 5.7 231 18.1 101320 79
2001-08-13 07:02:40 51°13.677 2°55.923 3.8 222 18.1 101320 79
2001-08-13 07:02:44 51°13.677 2°55.923 4.5 228 18.1 101330 79
2001-08-13 07:02:50 51°13.677 2°55.923 5.4 225 18.1 101330 79
2001-08-13 07:02:55 51°13.677 2°55.923 6.1 213 18.1 101320 79
2001-08-13 07:03:00 51°13.677 2°55.923 8.7 241 18.1 101320 79
2001-08-13 07:03:04 51°13.677 2°55.923 7.5 229 18.1 101320 79
2001-08-13 07:03:10 51°13.677 2°55.923 6.5 231 18.1 101320 79
2001-08-13 07:03:15 51°13.677 2°55.923 6.8 220 18.1 101320 79
2001-08-13 07:03:20 51°13.677 2°55.923 7 229 18.1 101320 79
2001-08-13 07:03:25 51°13.677 2°55.923 8.8 249 18.1 101320 79
2001-08-13 07:03:30 51°13.677 2°55.923 6.9 235 18.1 101320 79
2001-08-13 07:03:34 51°13.677 2°55.923 8.2 236 18.1 101320 79
2001-08-13 07:03:40 51°13.677 2°55.923 7.1 230 18.1 101320 79
2001-08-13 07:03:44 51°13.677 2°55.923 7.4 223 18.1 101320 79
2001-08-13 07:03:50 51°13.677 2°55.923 6 215 18.1 101320 79
2001-08-13 07:03:55 51°13.677 2°55.923 6.2 246 18.1 101310 79
2001-08-13 07:04:00 51°13.677 2°55.923 4.2 217 18.1 101310 79
2001-08-13 07:04:04 51°13.677 2°55.923 6.4 222 18.1 101320 79
2001-08-13 07:04:10 51°13.677 2°55.923 6.4 255 18.1 101320 79
2001-08-13 07:04:15 51°13.677 2°55.923 6.7 254 18.1 101310 79
2001-08-13 07:04:20 51°13.677 2°55.923 4.8 203 18.1 101310 79
2001-08-13 07:04:25 51°13.677 2°55.923 5.8 225 18 101310 79
2001-08-13 07:04:30 51°13.677 2°55.923 7.3 246 18 101310 79
2001-08-13 07:04:35 51°13.677 2°55.923 5.7 232 18 101320 79
2001-08-13 07:04:40 51°13.677 2°55.923 5.1 236 18 101320 79
2001-08-13 07:04:44 51°13.677 2°55.923 6.9 223 18 101320 79
2001-08-13 07:04:50 51°13.677 2°55.923 7 236 18 101320 79
2001-08-13 07:04:54 51°13.677 2°55.923 6.2 221 18 101320 79
2001-08-13 07:05:00 51°13.677 2°55.923 7.5 232 18 101320 79
2001-08-13 07:05:04 51°13.677 2°55.923 7.3 317 18 101310 80
2001-08-13 07:05:10 51°13.677 2°55.923 5.9 226 18 101310 80
2001-08-13 07:05:15 51°13.677 2°55.923 5.3 230 18 101310 79
2001-08-13 07:05:20 51°13.677 2°55.923 6.3 235 18 101310 79
2001-08-13 07:05:24 51°13.677 2°55.922 4.3 202 18 101320 79
2001-08-13 07:05:30 51°13.677 2°55.922 5.2 221 18 101320 79
2001-08-13 07:05:35 51°13.676 2°55.923 4.8 235 18 101310 79
2001-08-13 07:05:40 51°13.676 2°55.923 5.1 228 18 101310 79
2001-08-13 07:05:44 51°13.676 2°55.923 4.7 227 18 101310 80
2001-08-13 07:05:50 51°13.676 2°55.923 6.4 232 18 101310 80
2001-08-13 07:05:54 51°13.676 2°55.923 5.4 236 18.1 101320 80
2001-08-13 07:06:00 51°13.676 2°55.923 7.6 227 18.1 101320 80
2001-08-13 07:06:04 51°13.676 2°55.923 7 237 18 101320 79
2001-08-13 07:06:10 51°13.676 2°55.923 7.2 256 18 101320 79
2001-08-13 07:06:15 51°13.676 2°55.923 5.8 273 18 101320 79
2001-08-13 07:06:20 51°13.676 2°55.923 6.2 246 18 101320 79
2001-08-13 07:06:24 51°13.676 2°55.923 6.7 242 18 101320 79
2001-08-13 07:06:30 51°13.676 2°55.923 6.6 273 18 101320 79
2001-08-13 07:06:34 51°13.676 2°55.923 6.3 264 18 101310 79
2001-08-13 07:06:40 51°13.676 2°55.923 5.4 221 18 101310 79
2001-08-13 07:06:44 51°13.676 2°55.923 4.9 259 18 101310 80
2001-08-13 07:06:50 51°13.676 2°55.923 4.4 229 18 101310 80
2001-08-13 07:06:54 51°13.676 2°55.923 5.2 227 18 101310 79
2001-08-13 07:07:00 51°13.676 2°55.923 4.8 231 18 101310 79
2001-08-13 07:07:04 51°13.676 2°55.923 3.9 127 18 101310 79
2001-08-13 07:07:10 51°13.677 2°55.923 4.6 240 18 101310 79
2001-08-13 07:07:15 51°13.677 2°55.923 4.2 227 18 101310 79
2001-08-13 07:07:20 51°13.676 2°55.923 5 238 18 101310 79
2001-08-13 07:07:24 51°13.676 2°55.923 4.2 246 18 101320 79
2001-08-13 07:07:30 51°13.676 2°55.923 4.7 237 18 101320 79
2001-08-13 07:07:35 51°13.676 2°55.923 6 224 18 101320 79
2001-08-13 07:07:40 51°13.676 2°55.923 4.5 221 18 101320 79
2001-08-13 07:07:44 51°13.676 2°55.923 4.6 205 18.1 101310 79
2001-08-13 07:07:50 51°13.676 2°55.923 6.8 217 18.1 101310 79
2001-08-13 07:07:55 51°13.676 2°55.923 6.4 229 18.1 101310 80
2001-08-13 07:08:00 51°13.676 2°55.923 6.4 236 18.1 101310 80
2001-08-13 07:08:04 51°13.676 2°55.923 5.8 316 18.1 101310 79
2001-08-13 07:08:10 51°13.676 2°55.923 6.1 237 18.1 101310 79
2001-08-13 07:08:15 51°13.676 2°55.923 5.8 215 18.1 101310 79
2001-08-13 07:08:20 51°13.676 2°55.923 5.8 220 18.1 101310 79
2001-08-13 07:08:24 51°13.676 2°55.923 5.3 214 18.1 101310 79
2001-08-13 07:08:30 51°13.676 2°55.923 6.9 222 18.1 101310 79
2001-08-13 07:08:35 51°13.676 2°55.923 5.5 212 18.1 101310 79
2001-08-13 07:08:40 51°13.676 2°55.923 5.5 232 18.1 101310 79
2001-08-13 07:08:45 51°13.676 2°55.923 5.7 132 18.1 101320 79
2001-08-13 07:08:50 51°13.676 2°55.923 6.5 239 18.1 101320 79
2001-08-13 07:08:54 51°13.676 2°55.923 6.8 223 18.1 101310 79
2001-08-13 07:09:00 51°13.676 2°55.923 7.5 315 18.1 101310 79
2001-08-13 07:09:04 51°13.676 2°55.923 6.9 244 18.1 101310 79
2001-08-13 07:09:10 51°13.676 2°55.923 5.4 239 18.1 101310 79
2001-08-13 07:09:14 51°13.676 2°55.923 5.8 242 18.1 101310 79
2001-08-13 07:09:20 51°13.676 2°55.923 5.4 251 18.1 101310 79
2001-08-13 07:09:24 51°13.676 2°55.923 6.3 227 18.1 101310 79
2001-08-13 07:09:30 51°13.676 2°55.923 4.9 231 18.1 101310 79
2001-08-13 07:09:34 51°13.676 2°55.923 4.4 221 18.1 101320 79
2001-08-13 07:09:40 51°13.676 2°55.923 4.5 209 18.1 101320 79
2001-08-13 07:09:44 51°13.676 2°55.923 4.5 226 18.1 101320 79
2001-08-13 07:09:50 51°13.676 2°55.923 4 226 18.1 101320 79
2001-08-13 07:09:55 51°13.676 2°55.923 5.2 233 18.1 101320 79
2001-08-13 07:10:00 51°13.676 2°55.923 3.7 226 18.1 101320 79
2001-08-13 07:10:04 51°13.676 2°55.923 4.4 246 18.1 101320 79
2001-08-13 07:10:08 51°13.676 2°55.923 4.3 239 18.1 101320 79
2001-08-13 07:10:13 51°13.676 2°55.923 5.1 233 18.1 101320 79
2001-08-13 07:10:17 51°13.676 2°55.923 3.6 229 18.1 101320 79
2001-08-13 07:10:22 51°13.676 2°55.923 4.3 242 18.1 101320 79
2001-08-13 07:10:26 51°13.676 2°55.923 5.6 222 18.1 101320 79
2001-08-13 07:10:30 51°13.677 2°55.923 5.9 240 18.1 101330 79
2001-08-13 07:10:36 51°13.677 2°55.923 6.1 270 18.1 101330 79
2001-08-13 07:10:40 51°13.677 2°55.923 7.1 239 18.1 101330 79
2001-08-13 07:10:46 51°13.676 2°55.923 4.5 224 18.1 101330 79
2001-08-13 07:10:50 51°13.676 2°55.923 4.4 196 18.1 101320 79
2001-08-13 07:10:56 51°13.676 2°55.923 5 227 18.1 101320 79
2001-08-13 07:11:00 51°13.676 2°55.923 5.6 209 18.1 101320 79
2001-08-13 07:11:04 51°13.676 2°55.923 4.3 226 18.1 101320 79
2001-08-13 07:11:10 51°13.676 2°55.923 4.2 209 18.1 101320 79
2001-08-13 07:11:16 51°13.676 2°55.923 5.6 213 18.1 101320 79
2001-08-13 07:11:20 51°13.676 2°55.923 5.8 219 18.1 101320 79
2001-08-13 07:11:25 51°13.677 2°55.923 6 212 18.1 101320 79
2001-08-13 07:11:30 51°13.677 2°55.923 6 218 18.1 101320 79
2001-08-13 07:11:36 51°13.677 2°55.923 4.2 220 18.1 101320 79
2001-08-13 07:11:40 51°13.677 2°55.923 5.9 224 18.1 101320 79
2001-08-13 07:11:46 51°13.676 2°55.923 5.2 227 18.1 101320 79
2001-08-13 07:11:50 51°13.676 2°55.923 5.2 132 18.1 101320 79
2001-08-13 07:11:56 51°13.677 2°55.923 5.8 225 18.1 101320 79
2001-08-13 07:12:00 51°13.677 2°55.923 4 230 18.1 101330 79
2001-08-13 07:12:06 51°13.677 2°55.923 4.2 231 18.1 101330 79
2001-08-13 07:12:10 51°13.677 2°55.923 4 232 18.1 101320 79
2001-08-13 07:12:14 51°13.677 2°55.923 4.1 227 18.1 101320 79
2001-08-13 07:12:32 51°13.677 2°55.923 6.8 244 18.1 101330 79
2001-08-13 07:12:36 51°13.677 2°55.923 6.5 239 18.1 101330 79
2001-08-13 07:12:42 51°13.677 2°55.923 5.8 225 18.1 101330 79
2001-08-13 07:12:47 51°13.677 2°55.923 5 233 18.1 101330 79
2001-08-13 07:14:02 51°13.677 2°55.923 4.8 269 18.1 101320 79
2001-08-13 07:14:08 51°13.677 2°55.923 4.5 280 18.1 101320 79
2001-08-13 07:14:12 51°13.677 2°55.923 5.1 245 18.1 101330 78
2001-08-13 07:14:16 51°13.677 2°55.923 5.8 246 18.1 101330 78
2001-08-13 07:14:22 51°13.677 2°55.923 6.4 238 18.1 101320 78
2001-08-13 07:14:26 51°13.677 2°55.923 5.1 220 18.1 101320 78
2001-08-13 07:14:32 51°13.677 2°55.923 5.7 231 18.1 101330 79
2001-08-13 07:14:36 51°13.677 2°55.923 5.3 219 18.1 101330 79
2001-08-13 07:14:42 51°13.677 2°55.923 5.2 135 18.1 101330 79
2001-08-13 07:14:48 51°13.677 2°55.923 4.7 245 18.1 101330 79
2001-08-13 07:14:52 51°13.677 2°55.923 5.2 249 18.1 101330 79
2001-08-13 07:14:58 51°13.677 2°55.923 5.9 267 18.1 101330 79
2001-08-13 07:15:02 51°13.677 2°55.923 5 261 18.1 101330 78
2001-08-13 07:15:08 51°13.677 2°55.923 5.5 252 18.1 101330 78
2001-08-13 07:15:12 51°13.677 2°55.923 4.6 245 18.1 101330 79
2001-08-13 07:15:18 51°13.677 2°55.923 2.3 196 18.1 101330 79
2001-08-13 07:15:23 51°13.677 2°55.923 2.7 203 18.1 101340 79
2001-08-13 07:15:28 51°13.677 2°55.923 3 234 18.1 101340 79
2001-08-13 07:15:32 51°13.677 2°55.923 5.5 250 18.1 101330 79
2001-08-13 07:15:38 51°13.677 2°55.923 3.8 210 18.1 101330 79
2001-08-13 07:15:43 51°13.677 2°55.923 2.9 213 18.1 101330 79
2001-08-13 07:15:48 51°13.677 2°55.923 4.3 209 18.1 101330 79
2001-08-13 07:15:52 51°13.677 2°55.923 6 216 18.1 101330 79
2001-08-13 07:15:58 51°13.677 2°55.923 6.4 228 18.1 101330 79
2001-08-13 07:16:02 51°13.677 2°55.923 4.9 227 18.1 101340 78
2001-08-13 07:16:08 51°13.677 2°55.923 5.6 219 18.1 101340 78
2001-08-13 07:16:12 51°13.677 2°55.923 5.4 220 18.1 101330 78
2001-08-13 07:16:18 51°13.677 2°55.923 5.3 210 18.1 101330 78
2001-08-13 07:16:23 51°13.677 2°55.923 5.2 206 18.2 101340 78
2001-08-13 07:16:28 51°13.677 2°55.923 5.5 226 18.2 101340 78
2001-08-13 07:16:33 51°13.677 2°55.923 5.2 196 18.2 101340 78
2001-08-13 07:16:38 51°13.677 2°55.923 5 242 18.2 101340 78
2001-08-13 07:16:42 51°13.677 2°55.923 3.9 243 18.1 101340 79
2001-08-13 07:16:48 51°13.676 2°55.923 5.4 222 18.1 101340 79
2001-08-13 07:16:52 51°13.676 2°55.923 5.3 212 18.2 101340 79
2001-08-13 07:16:58 51°13.676 2°55.922 3.3 227 18.2 101340 79
2001-08-13 07:17:03 51°13.676 2°55.922 2.8 222 18.2 101340 78
2001-08-13 07:17:08 51°13.676 2°55.922 4.8 234 18.2 101340 78
2001-08-13 07:17:12 51°13.676 2°55.922 2.5 203 18.2 101340 78
2001-08-13 07:17:18 51°13.676 2°55.922 4.3 195 18.2 101340 78
2001-08-13 07:17:22 51°13.676 2°55.922 3.3 206 18.2 101340 78
2001-08-13 07:17:28 51°13.676 2°55.922 5.9 206 18.2 101340 78
2001-08-13 07:17:32 51°13.676 2°55.922 6.7 227 18.2 101340 78
2001-08-13 07:17:38 51°13.676 2°55.922 4.4 211 18.2 101340 78
2001-08-13 07:17:43 51°13.676 2°55.922 4.4 206 18.2 101340 78
2001-08-13 07:17:48 51°13.676 2°55.922 4.5 219 18.2 101340 78
2001-08-13 07:17:52 51°13.676 2°55.922 5.2 223 18.2 101340 78
2001-08-13 07:17:58 51°13.676 2°55.922 4.9 212 18.2 101340 78
2001-08-13 07:18:02 51°13.676 2°55.922 5.5 227 18.2 101340 78
2001-08-13 07:18:08 51°13.676 2°55.922 6.7 226 18.2 101340 78
2001-08-13 07:18:12 51°13.676 2°55.922 6.1 220 18.2 101340 78
2001-08-13 07:18:18 51°13.676 2°55.922 5.2 133 18.2 101340 78
2001-08-13 07:18:22 51°13.677 2°55.922 5.4 225 18.2 101330 78
2001-08-13 07:18:28 51°13.677 2°55.922 5.1 215 18.2 101330 78
2001-08-13 07:18:32 51°13.677 2°55.922 5.7 233 18.2 101340 78
2001-08-13 07:18:38 51°13.677 2°55.922 6 225 18.2 101340 78
2001-08-13 07:18:42 51°13.677 2°55.922 6.8 213 18.1 101340 78
2001-08-13 07:18:48 51°13.677 2°55.922 6.2 315 18.1 101340 78
2001-08-13 07:18:52 51°13.677 2°55.922 5.9 239 18.1 101340 78
2001-08-13 07:18:58 51°13.677 2°55.923 4.9 195 18.1 101340 78
2001-08-13 07:19:02 51°13.677 2°55.923 4.5 205 18.1 101340 78
2001-08-13 07:19:08 51°13.677 2°55.922 3.8 217 18.1 101340 78
2001-08-13 07:19:12 51°13.677 2°55.922 5.1 196 18.1 101340 78
2001-08-13 07:19:18 51°13.676 2°55.922 4.7 234 18.1 101340 78
2001-08-13 07:19:23 51°13.676 2°55.922 3.6 204 18.1 101340 79
2001-08-13 07:19:28 51°13.676 2°55.922 3.5 216 18.1 101340 79
2001-08-13 07:19:32 51°13.676 2°55.922 4.8 237 18.1 101340 78
2001-08-13 07:19:38 51°13.676 2°55.923 4.6 224 18.1 101340 78
2001-08-13 07:19:43 51°13.677 2°55.923 5 230 18.1 101340 78
2001-08-13 07:19:48 51°13.677 2°55.923 4.9 235 18.1 101340 78
2001-08-13 07:19:52 51°13.677 2°55.923 6.6 225 18.2 101340 79
2001-08-13 07:19:58 51°13.677 2°55.923 5.6 221 18.2 101340 79
2001-08-13 07:20:02 51°13.677 2°55.923 4.7 230 18.2 101340 79
2001-08-13 07:20:08 51°13.677 2°55.923 3.5 225 18.2 101340 79
2001-08-13 07:20:12 51°13.677 2°55.923 3.9 223 18.2 101340 78
2001-08-13 07:20:18 51°13.677 2°55.923 4.6 207 18.2 101340 78
2001-08-13 07:20:23 51°13.677 2°55.923 4.9 232 18.1 101340 78
2001-08-13 07:20:28 51°13.677 2°55.923 6 229 18.1 101340 78
2001-08-13 07:20:33 51°13.677 2°55.923 4.4 222 18.1 101340 78
2001-08-13 07:20:38 51°13.677 2°55.923 4.5 227 18.1 101340 78
2001-08-13 07:20:42 51°13.677 2°55.923 5.8 255 18.2 101350 79
2001-08-13 07:20:48 51°13.677 2°55.923 7.6 232 18.2 101350 79
2001-08-13 07:20:52 51°13.677 2°55.923 7 234 18.2 101350 78
2001-08-13 07:20:58 51°13.677 2°55.923 7.2 253 18.2 101350 78
2001-08-13 07:21:03 51°13.677 2°55.923 6.3 248 18.2 101340 78
2001-08-13 07:21:08 51°13.677 2°55.923 5.8 245 18.2 101340 78
2001-08-13 07:21:13 51°13.676 2°55.923 5.1 232 18.1 101340 78
2001-08-13 07:21:18 51°13.677 2°55.923 6.4 278 18.1 101340 78
2001-08-13 07:21:22 51°13.677 2°55.923 5.2 236 18.1 101350 78
2001-08-13 07:21:28 51°13.676 2°55.923 5.2 248 18.1 101350 78
2001-08-13 07:21:32 51°13.676 2°55.923 6.2 224 18.1 101340 78
2001-08-13 07:21:38 51°13.677 2°55.923 4.8 234 18.1 101340 78
2001-08-13 07:21:43 51°13.677 2°55.923 6 231 18.2 101340 78
2001-08-13 07:21:48 51°13.677 2°55.923 4.8 225 18.2 101340 78
2001-08-13 07:21:52 51°13.677 2°55.923 4.6 225 18.2 101340 78
2001-08-13 07:21:58 51°13.676 2°55.923 4.6 316 18.2 101340 78
2001-08-13 07:22:03 51°13.676 2°55.923 6.2 236 18.1 101350 78
2001-08-13 07:22:08 51°13.676 2°55.923 4.4 222 18.1 101350 78
2001-08-13 07:22:12 51°13.676 2°55.923 4.4 238 18.1 101350 78
2001-08-13 07:22:18 51°13.676 2°55.923 4 235 18.1 101350 78
2001-08-13 07:22:22 51°13.676 2°55.923 4 239 18.2 101350 78
2001-08-13 07:22:28 51°13.676 2°55.923 4.2 232 18.2 101350 78
2001-08-13 07:22:32 51°13.676 2°55.923 4.5 233 18.1 101350 78
2001-08-13 07:22:38 51°13.676 2°55.923 4.1 211 18.1 101350 78
2001-08-13 07:22:42 51°13.676 2°55.923 4 218 18.2 101350 78
2001-08-13 07:22:48 51°13.676 2°55.923 4.4 233 18.2 101350 78
2001-08-13 07:22:52 51°13.676 2°55.923 5 235 18.2 101340 79
2001-08-13 07:22:58 51°13.676 2°55.923 6.3 234 18.2 101340 79
2001-08-13 07:23:02 51°13.676 2°55.923 5.6 230 18.2 101350 78
2001-08-13 07:23:08 51°13.676 2°55.923 5.8 232 18.2 101350 78
2001-08-13 07:23:12 51°13.676 2°55.923 4.8 218 18.2 101350 78
2001-08-13 07:23:18 51°13.676 2°55.923 5.2 245 18.2 101350 78
2001-08-13 07:23:22 51°13.676 2°55.923 6.2 204 18.2 101350 78
2001-08-13 07:23:26 51°13.676 2°55.923 5.2 215 18.2 101350 78
2001-08-13 07:23:32 51°13.676 2°55.923 3.9 223 18.2 101350 78
2001-08-13 07:23:38 51°13.676 2°55.923 6.7 232 18.2 101350 78
2001-08-13 07:23:42 51°13.676 2°55.923 6.8 135 18.2 101350 78
2001-08-13 07:23:46 51°13.676 2°55.923 7 225 18.2 101350 78
2001-08-13 07:23:52 51°13.677 2°55.923 5.8 223 18.2 101350 78
2001-08-13 07:23:58 51°13.677 2°55.923 6.5 245 18.2 101350 78
2001-08-13 07:24:02 51°13.677 2°55.923 5.8 220 18.2 101350 78
2001-08-13 07:24:06 51°13.677 2°55.923 4.5 224 18.2 101350 78
2001-08-13 07:24:12 51°13.677 2°55.923 4.1 214 18.2 101350 78
2001-08-13 07:24:18 51°13.677 2°55.923 4.7 209 18.2 101350 78
2001-08-13 07:24:22 51°13.677 2°55.923 5.6 212 18.2 101340 78
2001-08-13 07:24:26 51°13.677 2°55.923 5.1 205 18.2 101340 78
2001-08-13 07:24:32 51°13.677 2°55.923 3.8 201 18.2 101350 78
2001-08-13 07:24:37 51°13.677 2°55.923 5.2 211 18.2 101350 78
2001-08-13 07:24:42 51°13.677 2°55.923 4.5 204 18.2 101350 78
2001-08-13 07:24:47 51°13.676 2°55.923 5.5 228 18.2 101350 78
2001-08-13 07:24:52 51°13.676 2°55.923 4.5 222 18.2 101350 78
2001-08-13 07:24:58 51°13.677 2°55.923 5.7 228 18.2 101350 78
2001-08-13 07:25:02 51°13.677 2°55.923 6.2 243 18.2 101350 78
2001-08-13 07:25:08 51°13.677 2°55.923 6.7 260 18.2 101350 78
2001-08-13 07:25:12 51°13.677 2°55.923 5.4 225 18.2 101350 78
2001-08-13 07:25:16 51°13.677 2°55.923 3.8 207 18.2 101350 78
2001-08-13 07:25:22 51°13.677 2°55.923 3.9 223 18.2 101340 78
2001-08-13 07:25:26 51°13.677 2°55.923 5.5 245 18.2 101340 78
2001-08-13 07:25:32 51°13.677 2°55.923 5.4 241 18.2 101350 78
2001-08-13 07:25:38 51°13.677 2°55.923 5.2 249 18.2 101350 78
2001-08-13 07:25:42 51°13.677 2°55.923 8.6 250 18.2 101350 78
2001-08-13 07:25:48 51°13.677 2°55.923 6.7 238 18.2 101350 78
2001-08-13 07:25:52 51°13.677 2°55.923 5.6 253 18.2 101350 78
2001-08-13 07:25:57 51°13.677 2°55.923 4.5 217 18.2 101350 78
2001-08-13 07:26:02 51°13.677 2°55.923 7.3 227 18.2 101350 78
2001-08-13 07:26:08 51°13.677 2°55.923 8.1 262 18.2 101350 78
2001-08-13 07:26:12 51°13.677 2°55.923 7.5 235 18.2 101340 78
2001-08-13 07:26:16 51°13.677 2°55.923 5.7 221 18.2 101340 78
2001-08-13 07:26:22 51°13.677 2°55.923 5.4 235 18.2 101340 78
2001-08-13 07:26:28 51°13.677 2°55.923 5.3 203 18.2 101340 78
2001-08-13 07:26:32 51°13.677 2°55.923 6.3 213 18.2 101340 78
2001-08-13 07:26:36 51°13.677 2°55.923 5.9 211 18.2 101340 78
2001-08-13 07:26:42 51°13.677 2°55.923 6.6 249 18.2 101340 78
2001-08-13 07:26:48 51°13.677 2°55.922 6.1 229 18.2 101340 78
2001-08-13 07:26:52 51°13.677 2°55.922 8.3 237 18.2 101350 78
2001-08-13 07:26:57 51°13.677 2°55.922 6.5 228 18.2 101350 78
2001-08-13 07:27:02 51°13.677 2°55.922 6.8 238 18.2 101340 78
2001-08-13 07:27:06 51°13.677 2°55.922 4.5 259 18.2 101340 78
2001-08-13 07:27:12 51°13.677 2°55.922 4.1 223 18.2 101340 78
2001-08-13 07:27:16 51°13.677 2°55.922 3.4 216 18.2 101340 78
2001-08-13 07:27:22 51°13.677 2°55.923 4 317 18.2 101340 78
2001-08-13 07:27:28 51°13.677 2°55.923 4 222 18.2 101340 78
2001-08-13 07:27:32 51°13.677 2°55.923 5.3 199 18.2 101350 78
2001-08-13 07:27:38 51°13.677 2°55.923 3.2 210 18.2 101350 78
2001-08-13 07:27:42 51°13.677 2°55.923 4.8 134 18.2 101340 78
2001-08-13 07:27:46 51°13.677 2°55.923 5.3 241 18.2 101340 78
2001-08-13 07:27:52 51°13.677 2°55.923 4.3 233 18.2 101350 78
2001-08-13 07:27:58 51°13.677 2°55.923 4 238 18.2 101350 78
2001-08-13 07:28:02 51°13.677 2°55.923 4.7 230 18.2 101340 78
2001-08-13 07:28:06 51°13.677 2°55.923 4.5 219 18.2 101340 78
2001-08-13 07:28:12 51°13.677 2°55.923 6.4 229 18.2 101350 78
2001-08-13 07:28:16 51°13.677 2°55.923 6.9 228 18.2 101350 78
2001-08-13 07:28:22 51°13.677 2°55.923 6.6 234 18.2 101350 78
2001-08-13 07:28:28 51°13.677 2°55.923 7 226 18.2 101350 78
2001-08-13 07:28:32 51°13.677 2°55.923 6.6 315 18.2 101350 78
2001-08-13 07:28:38 51°13.677 2°55.923 5.3 254 18.2 101350 78
2001-08-13 07:28:42 51°13.677 2°55.923 6.2 237 18.2 101350 78
2001-08-13 07:28:46 51°13.677 2°55.923 6.5 226 18.2 101350 78
2001-08-13 07:28:52 51°13.677 2°55.923 5.4 217 18.2 101340 78
2001-08-13 07:28:56 51°13.677 2°55.923 5.6 248 18.2 101340 78
2001-08-13 07:29:02 51°13.677 2°55.923 4.8 226 18.2 101350 78
2001-08-13 07:29:08 51°13.677 2°55.922 4.8 230 18.2 101350 78
2001-08-13 07:29:12 51°13.677 2°55.923 4.9 233 18.2 101350 78
2001-08-13 07:29:18 51°13.677 2°55.923 4.6 234 18.2 101350 78
2001-08-13 07:29:22 51°13.677 2°55.923 5.6 228 18.2 101340 78
2001-08-13 07:29:26 51°13.677 2°55.923 7.4 246 18.2 101340 78
2001-08-13 07:29:32 51°13.677 2°55.923 6.9 251 18.2 101340 78
2001-08-13 07:29:36 51°13.677 2°55.923 7.9 249 18.2 101340 78
2001-08-13 07:29:42 51°13.677 2°55.923 7.3 225 18.2 101350 78
2001-08-13 07:29:47 51°13.677 2°55.922 7.7 255 18.2 101350 78
2001-08-13 07:29:52 51°13.677 2°55.922 6.8 246 18.2 101350 78
2001-08-13 07:29:56 51°13.677 2°55.923 7 244 18.2 101350 78
2001-08-13 07:30:02 51°13.677 2°55.923 6.5 242 18.2 101340 78
2001-08-13 07:30:06 51°13.677 2°55.923 5.1 219 18.2 101340 78
2001-08-13 07:30:12 51°13.677 2°55.923 5.2 214 18.2 101340 78
2001-08-13 07:30:17 51°13.677 2°55.923 4.5 219 18.2 101340 78
2001-08-13 07:30:22 51°13.677 2°55.923 5.3 213 18.2 101340 78
2001-08-13 07:30:28 51°13.677 2°55.923 7.3 240 18.2 101340 78
2001-08-13 07:30:32 51°13.677 2°55.923 6.2 249 18.2 101340 78
2001-08-13 07:30:36 51°13.677 2°55.923 6.8 229 18.2 101340 78
2001-08-13 07:30:42 51°13.677 2°55.923 7.3 236 18.2 101340 78
2001-08-13 07:30:46 51°13.677 2°55.923 5.8 238 18.2 101340 78
2001-08-13 07:30:52 51°13.677 2°55.923 5.9 235 18.2 101350 78
2001-08-13 07:30:56 51°13.677 2°55.923 6.6 237 18.2 101350 78
2001-08-13 07:31:02 51°13.677 2°55.923 5.2 227 18.2 101340 78
2001-08-13 07:31:06 51°13.677 2°55.923 5.9 234 18.2 101340 78
2001-08-13 07:31:12 51°13.677 2°55.923 5 220 18.2 101340 78
2001-08-13 07:31:16 51°13.677 2°55.923 6.6 224 18.2 101340 78
2001-08-13 07:31:22 51°13.677 2°55.923 5.5 219 18.2 101340 78
2001-08-13 07:31:26 51°13.677 2°55.923 6.7 242 18.2 101340 78
2001-08-13 07:31:32 51°13.677 2°55.924 6 214 18.2 101350 78
2001-08-13 07:31:38 51°13.677 2°55.924 8.8 232 18.2 101350 78
2001-08-13 07:31:42 51°13.677 2°55.924 8.5 237 18.2 101350 78
2001-08-13 07:31:46 51°13.677 2°55.924 8 230 18.2 101350 78
2001-08-13 07:31:52 51°13.677 2°55.923 8.3 247 18.2 101340 78
2001-08-13 07:31:58 51°13.676 2°55.923 8.7 244 18.2 101340 78
2001-08-13 07:32:02 51°13.676 2°55.923 6.6 238 18.2 101340 78
2001-08-13 07:32:08 51°13.676 2°55.923 7.3 239 18.2 101340 78
2001-08-13 07:32:12 51°13.676 2°55.923 7.1 229 18.2 101340 78
2001-08-13 07:32:16 51°13.676 2°55.923 7.8 208 18.2 101340 78
2001-08-13 07:32:22 51°13.676 2°55.923 4.3 227 18.2 101340 78
2001-08-13 07:32:27 51°13.676 2°55.923 4.8 210 18.2 101340 78
2001-08-13 07:32:32 51°13.676 2°55.923 6.1 229 18.2 101340 78
2001-08-13 07:32:37 51°13.676 2°55.923 5.4 241 18.2 101340 78
2001-08-13 07:32:42 51°13.676 2°55.923 5.5 246 18.2 101340 78
2001-08-13 07:32:48 51°13.676 2°55.923 5.7 213 18.2 101340 78
2001-08-13 07:32:52 51°13.676 2°55.924 5.5 203 18.2 101350 79
2001-08-13 07:32:56 51°13.676 2°55.924 4.5 209 18.2 101350 79
2001-08-13 07:33:02 51°13.677 2°55.924 3.5 223 18.1 101350 78
2001-08-13 07:33:08 51°13.676 2°55.924 3.2 217 18.1 101350 78
2001-08-13 07:33:12 51°13.677 2°55.924 4 212 18.2 101350 79
2001-08-13 07:33:16 51°13.677 2°55.924 4.1 223 18.2 101350 79
2001-08-13 07:33:22 51°13.677 2°55.924 4 220 18.1 101350 78
2001-08-13 07:33:27 51°13.677 2°55.924 3.5 216 18.1 101350 78
2001-08-13 07:33:32 51°13.677 2°55.924 4.9 249 18.1 101350 78
2001-08-13 07:33:36 51°13.677 2°55.924 4.1 209 18.1 101350 78
2001-08-13 07:33:42 51°13.677 2°55.924 3.8 229 18.1 101350 78
2001-08-13 07:33:46 51°13.677 2°55.925 4.5 230 18.1 101350 78
2001-08-13 07:33:52 51°13.677 2°55.926 4.2 208 18.1 101350 79
2001-08-13 07:33:58 51°13.677 2°55.926 4 228 18.1 101350 79
2001-08-13 07:34:02 51°13.677 2°55.926 3.7 316 18.2 101350 79
2001-08-13 07:34:06 51°13.677 2°55.926 4.2 239 18.2 101350 79
2001-08-13 07:34:12 51°13.677 2°55.925 5.7 229 18.2 101350 79
2001-08-13 07:34:17 51°13.677 2°55.925 5.4 247 18.2 101350 79
2001-08-13 07:34:22 51°13.677 2°55.925 6.4 225 18.2 101350 79
2001-08-13 07:34:27 51°13.677 2°55.925 6.8 215 18.2 101350 79
2001-08-13 07:34:32 51°13.677 2°55.925 5.3 210 18.2 101350 79
2001-08-13 07:34:38 51°13.677 2°55.925 6.9 217 18.2 101350 79
2001-08-13 07:34:42 51°13.677 2°55.925 3.8 211 18.2 101350 79
2001-08-13 07:34:46 51°13.677 2°55.925 5 232 18.2 101350 79
2001-08-13 07:34:52 51°13.677 2°55.924 3.8 321 18.1 101350 78
2001-08-13 07:34:56 51°13.677 2°55.924 4.2 205 18.1 101350 78
2001-08-13 07:35:02 51°13.677 2°55.924 4.5 220 18.2 101350 78
2001-08-13 07:35:06 51°13.677 2°55.924 6.2 219 18.2 101350 78
2001-08-13 07:35:12 51°13.677 2°55.925 4.3 218 18.2 101350 78
2001-08-13 07:35:16 51°13.677 2°55.925 4.8 228 18.2 101350 78
2001-08-13 07:35:22 51°13.677 2°55.925 6.6 214 18.1 101350 78
2001-08-13 07:35:28 51°13.677 2°55.924 4.3 204 18.1 101350 78
2001-08-13 07:35:32 51°13.677 2°55.924 4.5 245 18.2 101350 78
2001-08-13 07:35:37 51°13.677 2°55.924 4.2 231 18.2 101350 78
2001-08-13 07:35:42 51°13.677 2°55.924 4 135 18.2 101350 78
2001-08-13 07:35:46 51°13.677 2°55.924 4.1 218 18.2 101350 78
2001-08-13 07:35:52 51°13.677 2°55.924 4.7 222 18.2 101360 79
2001-08-13 07:35:58 51°13.677 2°55.924 5.5 243 18.2 101360 79
2001-08-13 07:36:02 51°13.677 2°55.924 5.2 225 18.2 101350 78
2001-08-13 07:36:06 51°13.677 2°55.924 5.3 226 18.2 101350 78
2001-08-13 07:36:12 51°13.677 2°55.924 7.7 251 18.2 101350 78
2001-08-13 07:36:17 51°13.677 2°55.924 6.2 238 18.2 101350 78
2001-08-13 07:36:22 51°13.677 2°55.925 6.9 237 18.2 101350 78
2001-08-13 07:36:27 51°13.677 2°55.924 7.2 239 18.2 101350 78
2001-08-13 07:36:32 51°13.677 2°55.925 6.7 249 18.2 101350 78
2001-08-13 07:36:37 51°13.677 2°55.925 6.1 234 18.2 101350 78
2001-08-13 07:36:42 51°13.677 2°55.924 5.6 232 18.2 101340 78
2001-08-13 07:36:46 51°13.677 2°55.924 5.9 232 18.2 101340 78
2001-08-13 07:36:52 51°13.677 2°55.924 5.7 230 18.2 101340 78
2001-08-13 07:36:57 51°13.677 2°55.924 6.7 252 18.2 101340 78
2001-08-13 07:37:02 51°13.677 2°55.924 6.6 243 18.2 101340 78
2001-08-13 07:37:06 51°13.677 2°55.924 5.4 317 18.2 101340 78
2001-08-13 07:37:12 51°13.677 2°55.924 5 244 18.2 101350 78
2001-08-13 07:37:16 51°13.677 2°55.924 4.7 222 18.2 101350 78
2001-08-13 07:37:22 51°13.677 2°55.924 4.5 216 18.2 101340 78
2001-08-13 07:37:26 51°13.677 2°55.924 3 222 18.2 101340 78
2001-08-13 07:37:32 51°13.677 2°55.924 4.6 226 18.2 101340 78
2001-08-13 07:37:36 51°13.677 2°55.924 4.2 246 18.2 101340 78
2001-08-13 07:37:42 51°13.677 2°55.924 4.6 267 18.2 101350 79
2001-08-13 07:37:47 51°13.677 2°55.925 4.9 236 18.2 101350 79
2001-08-13 07:37:52 51°13.677 2°55.925 5.8 254 18.2 101350 78
2001-08-13 07:37:58 51°13.677 2°55.924 7.5 133 18.2 101350 78
2001-08-13 07:38:02 51°13.677 2°55.924 6.7 232 18.2 101350 78
2001-08-13 07:38:07 51°13.676 2°55.925 8.9 259 18.2 101350 78
2001-08-13 07:38:12 51°13.677 2°55.925 6.1 253 18.2 101350 78
2001-08-13 07:38:18 51°13.677 2°55.925 6.2 216 18.2 101350 78
2001-08-13 07:38:22 51°13.677 2°55.925 5 220 18.2 101350 78
2001-08-13 07:38:26 51°13.676 2°55.925 6.2 208 18.2 101350 78
2001-08-13 07:38:32 51°13.676 2°55.925 4.9 202 18.2 101340 78
2001-08-13 07:38:37 51°13.676 2°55.925 4.5 225 18.2 101340 78
2001-08-13 07:38:42 51°13.676 2°55.925 3.5 207 18.2 101350 78
2001-08-13 07:38:47 51°13.676 2°55.925 4.2 207 18.2 101350 78
2001-08-13 07:38:52 51°13.676 2°55.925 4.9 199 18.1 101350 78
2001-08-13 07:38:56 51°13.676 2°55.925 5 219 18.1 101350 78
2001-08-13 07:39:02 51°13.675 2°55.925 3.9 239 18.2 101350 78
2001-08-13 07:39:08 51°13.675 2°55.925 4.9 221 18.2 101350 78
2001-08-13 07:39:12 51°13.675 2°55.925 5 219 18.2 101350 79
2001-08-13 07:39:18 51°13.675 2°55.925 5.6 230 18.2 101350 79
2001-08-13 07:39:22 51°13.675 2°55.925 7.1 226 18.2 101350 79
2001-08-13 07:39:27 51°13.675 2°55.925 5 215 18.2 101350 79
2001-08-13 07:39:32 51°13.675 2°55.925 5.1 216 18.2 101350 79
2001-08-13 07:39:38 51°13.674 2°55.925 6.1 214 18.2 101350 79
2001-08-13 07:39:42 51°13.674 2°55.925 4.9 217 18.2 101350 78
2001-08-13 07:39:48 51°13.674 2°55.925 6 196 18.2 101350 78
2001-08-13 07:39:52 51°13.674 2°55.925 5.7 198 18.2 101350 78
2001-08-13 07:39:58 51°13.674 2°55.925 5.1 200 18.2 101350 78
2001-08-13 07:40:02 51°13.674 2°55.925 4 197 18.1 101350 78
2001-08-13 07:40:08 51°13.674 2°55.925 3.4 208 18.1 101350 78
2001-08-13 07:40:12 51°13.674 2°55.925 3.4 209 18.1 101350 78
2001-08-13 07:40:16 51°13.674 2°55.925 5.4 201 18.1 101350 78
2001-08-13 07:40:22 51°13.674 2°55.925 5.3 191 18.2 101350 78
2001-08-13 07:40:27 51°13.674 2°55.925 3.2 210 18.2 101350 78
2001-08-13 07:40:32 51°13.674 2°55.925 3.4 226 18.1 101350 78
2001-08-13 07:40:38 51°13.674 2°55.924 3.7 209 18.1 101350 78
2001-08-13 07:40:42 51°13.674 2°55.923 4.8 194 18.2 101350 78
2001-08-13 07:40:48 51°13.674 2°55.923 4.4 206 18.2 101350 78
2001-08-13 07:40:52 51°13.674 2°55.922 4.4 199 18.2 101350 78
2001-08-13 07:40:56 51°13.674 2°55.922 3.4 199 18.2 101350 78
2001-08-13 07:41:02 51°13.674 2°55.921 4.4 193 18.2 101350 78
2001-08-13 07:41:07 51°13.674 2°55.92 3.4 211 18.2 101350 78
2001-08-13 07:41:12 51°13.675 2°55.918 3.7 197 18.2 101350 78
2001-08-13 07:41:18 51°13.675 2°55.916 3.6 199 18.2 101350 78
2001-08-13 07:41:22 51°13.675 2°55.914 2.7 198 18.2 101350 78
2001-08-13 07:41:28 51°13.675 2°55.913 3.2 208 18.2 101350 78
2001-08-13 07:41:32 51°13.676 2°55.911 3 209 18.2 101350 78
2001-08-13 07:41:36 51°13.676 2°55.911 3.6 209 18.2 101350 78
2001-08-13 07:41:42 51°13.677 2°55.909 4.2 189 18.2 101350 79
2001-08-13 07:41:48 51°13.677 2°55.907 3.9 208 18.2 101350 79
2001-08-13 07:41:53 51°13.677 2°55.905 3.7 192 18.2 101350 79
2001-08-13 07:41:58 51°13.678 2°55.902 3.7 222 18.2 101350 79
2001-08-13 07:42:03 51°13.679 2°55.899 3.9 212 18.2 101350 79
2001-08-13 07:42:08 51°13.679 2°55.896 5.4 212 18.2 101350 79
2001-08-13 07:42:12 51°13.68 2°55.893 5 205 18.2 101350 78
2001-08-13 07:42:18 51°13.681 2°55.888 4.6 194 18.2 101350 78
2001-08-13 07:42:22 51°13.681 2°55.884 4.8 185 18.2 101350 79
2001-08-13 07:42:28 51°13.682 2°55.877 4.7 196 18.2 101350 79
2001-08-13 07:42:32 51°13.682 2°55.872 5 186 18.2 101350 78
2001-08-13 07:42:36 51°13.683 2°55.866 4.3 198 18.2 101350 78
2001-08-13 07:42:42 51°13.683 2°55.858 4.9 199 18.2 101360 79
2001-08-13 07:42:46 51°13.683 2°55.852 2.9 156 18.2 101360 79
2001-08-13 07:42:52 51°13.683 2°55.843 1.6 210 18.2 101350 79
2001-08-13 07:42:56 51°13.683 2°55.838 5.2 190 18.2 101350 79
2001-08-13 07:43:02 51°13.683 2°55.83 3.9 176 18.2 101350 78
2001-08-13 07:43:08 51°13.683 2°55.823 4.4 181 18.2 101350 78
2001-08-13 07:43:12 51°13.682 2°55.818 2.9 179 18.2 101360 79
2001-08-13 07:43:18 51°13.682 2°55.811 4.6 179 18.2 101360 79
2001-08-13 07:43:22 51°13.682 2°55.806 4.7 173 18.2 101350 79
2001-08-13 07:43:28 51°13.681 2°55.799 4.9 168 18.2 101350 79
2001-08-13 07:43:32 51°13.681 2°55.794 3.4 185 18.2 101360 79
2001-08-13 07:43:38 51°13.68 2°55.787 3.8 161 18.2 101360 79
2001-08-13 07:43:43 51°13.679 2°55.782 1.6 139 18.2 101360 78
2001-08-13 07:43:48 51°13.679 2°55.776 1.8 184 18.2 101360 78
2001-08-13 07:43:53 51°13.678 2°55.771 3 179 18.2 101350 78
2001-08-13 07:43:58 51°13.677 2°55.766 6.1 136 18.2 101350 78
2001-08-13 07:44:02 51°13.676 2°55.762 3.1 187 18.2 101360 78
2001-08-13 07:44:08 51°13.675 2°55.757 4 185 18.2 101360 78
2001-08-13 07:44:13 51°13.674 2°55.752 1.9 129 18.3 101360 78
2001-08-13 07:44:18 51°13.673 2°55.749 4.4 171 18.3 101360 78
2001-08-13 07:44:23 51°13.673 2°55.747 2.8 177 18.3 101360 78
2001-08-13 07:44:28 51°13.673 2°55.746 1.9 143 18.3 101360 78
2001-08-13 07:44:32 51°13.674 2°55.746 5.1 150 18.3 101360 78
2001-08-13 07:44:38 51°13.676 2°55.748 4.5 131 18.3 101360 78
2001-08-13 07:44:43 51°13.679 2°55.749 3.5 117 18.3 101360 78
2001-08-13 07:44:48 51°13.682 2°55.751 2.1 61 18.3 101360 78
2001-08-13 07:44:52 51°13.685 2°55.752 1.7 125 18.3 101360 78
2001-08-13 07:44:58 51°13.691 2°55.753 1.8 117 18.3 101360 78
2001-08-13 07:45:03 51°13.696 2°55.752 1.2 340 18.3 101360 78
2001-08-13 07:45:08 51°13.702 2°55.751 1.3 22 18.3 101360 78
2001-08-13 07:45:12 51°13.707 2°55.749 1 34 18.3 101370 77
2001-08-13 07:45:18 51°13.714 2°55.746 2 318 18.3 101370 77
2001-08-13 07:45:22 51°13.72 2°55.743 0.9 337 18.3 101360 77
2001-08-13 07:45:26 51°13.725 2°55.739 2.9 131 18.3 101360 77
2001-08-13 07:45:32 51°13.734 2°55.733 1.9 14 18.3 101360 77
2001-08-13 07:45:37 51°13.741 2°55.728 3.3 43 18.3 101360 77
2001-08-13 07:45:42 51°13.749 2°55.722 4.1 123 18.3 101360 77
2001-08-13 07:45:46 51°13.754 2°55.716 5.5 43 18.3 101360 77
2001-08-13 07:45:52 51°13.763 2°55.708 4.2 278 18.3 101360 77
2001-08-13 07:45:56 51°13.769 2°55.703 4.3 326 18.3 101360 77
2001-08-13 07:46:02 51°13.777 2°55.694 2.2 47 18.3 101360 77
2001-08-13 07:46:08 51°13.786 2°55.685 4.5 8 18.3 101360 77
2001-08-13 07:46:12 51°13.792 2°55.68 2.6 336 18.3 101360 78
2001-08-13 07:46:16 51°13.798 2°55.674 7 27 18.3 101360 78
2001-08-13 07:46:22 51°13.807 2°55.665 4.6 43 18.3 101360 77
2001-08-13 07:46:28 51°13.816 2°55.657 5.3 30 18.3 101360 77
2001-08-13 07:46:32 51°13.823 2°55.652 4.4 122 18.3 101360 77
2001-08-13 07:46:38 51°13.832 2°55.643 4 18 18.3 101360 77
2001-08-13 07:46:42 51°13.839 2°55.638 3.5 5 18.3 101350 77
2001-08-13 07:46:48 51°13.848 2°55.63 1.5 89 18.3 101350 77
2001-08-13 07:46:52 51°13.855 2°55.625 2 43 18.3 101360 77
2001-08-13 07:46:56 51°13.861 2°55.62 2.5 120 18.3 101360 77
2001-08-13 07:47:02 51°13.872 2°55.613 6.5 38 18.3 101360 77
2001-08-13 07:47:08 51°13.882 2°55.605 3.1 317 18.3 101360 77
2001-08-13 07:47:12 51°13.889 2°55.6 2.9 44 18.3 101360 77
2001-08-13 07:47:18 51°13.899 2°55.592 6.9 54 18.3 101360 77
2001-08-13 07:47:22 51°13.905 2°55.587 3.7 45 18.3 101360 77
2001-08-13 07:47:28 51°13.916 2°55.58 6.7 38 18.3 101360 77
2001-08-13 07:47:32 51°13.923 2°55.575 5.8 59 18.3 101360 78
2001-08-13 07:47:36 51°13.93 2°55.57 7.9 55 18.3 101360 78
2001-08-13 07:47:42 51°13.94 2°55.562 4.9 32 18.3 101350 78
2001-08-13 07:47:48 51°13.951 2°55.554 2.4 28 18.3 101350 78
2001-08-13 07:47:52 51°13.958 2°55.549 4.6 4 18.3 101350 78
2001-08-13 07:47:57 51°13.967 2°55.543 1.3 56 18.3 101350 78
2001-08-13 07:48:02 51°13.976 2°55.536 4.2 48 18.3 101360 77
2001-08-13 07:48:06 51°13.983 2°55.531 3.8 70 18.3 101360 77
2001-08-13 07:48:12 51°13.994 2°55.523 4.6 46 18.3 101350 78
2001-08-13 07:48:18 51°14.004 2°55.516 3.4 60 18.3 101350 78
2001-08-13 07:48:22 51°14.012 2°55.511 2.5 68 18.3 101360 78
2001-08-13 07:48:28 51°14.023 2°55.503 2.2 32 18.3 101360 78
2001-08-13 07:48:32 51°14.03 2°55.498 4.7 56 18.3 101360 78
2001-08-13 07:48:36 51°14.037 2°55.493 4.8 62 18.3 101360 78
2001-08-13 07:48:42 51°14.048 2°55.485 3.7 125 18.3 101360 78
2001-08-13 07:48:48 51°14.059 2°55.478 2.6 135 18.3 101360 78
2001-08-13 07:48:52 51°14.066 2°55.473 3.6 27 18.3 101360 78
2001-08-13 07:48:56 51°14.073 2°55.468 3.4 319 18.3 101360 78
2001-08-13 07:49:02 51°14.084 2°55.46 4.8 18 18.3 101360 78
2001-08-13 07:49:06 51°14.091 2°55.455 4.6 23 18.3 101360 78
2001-08-13 07:49:12 51°14.102 2°55.448 2.2 39 18.3 101360 78
2001-08-13 07:49:17 51°14.11 2°55.442 3 79 18.3 101360 78
2001-08-13 07:49:22 51°14.119 2°55.435 1.9 51 18.3 101360 78
2001-08-13 07:49:28 51°14.13 2°55.427 7.4 43 18.3 101360 78
2001-08-13 07:49:32 51°14.137 2°55.421 3.9 24 18.3 101360 78
2001-08-13 07:49:36 51°14.144 2°55.415 6.3 19 18.3 101360 78
2001-08-13 07:49:42 51°14.154 2°55.406 9.7 28 18.3 101360 78
2001-08-13 07:49:48 51°14.164 2°55.397 7.9 35 18.3 101360 78
2001-08-13 07:49:52 51°14.17 2°55.39 7 43 18.3 101360 78
2001-08-13 07:49:56 51°14.177 2°55.383 13 25 18.3 101360 78
2001-08-13 07:50:02 51°14.186 2°55.373 6 43 18.3 101360 79
2001-08-13 07:50:08 51°14.196 2°55.362 9.1 44 18.3 101360 79
2001-08-13 07:50:12 51°14.202 2°55.355 10.3 52 18.3 101350 79
2001-08-13 07:50:17 51°14.21 2°55.346 10.9 331 18.3 101350 79
2001-08-13 07:50:22 51°14.217 2°55.336 7.3 291 18.3 101350 79
2001-08-13 07:50:26 51°14.223 2°55.329 6.5 53 18.3 101350 79
2001-08-13 07:50:32 51°14.232 2°55.317 7.8 126 18.3 101350 79
2001-08-13 07:50:36 51°14.238 2°55.309 9.3 120 18.3 101350 79
2001-08-13 07:50:42 51°14.246 2°55.296 8.7 40 18.3 101350 79
2001-08-13 07:50:48 51°14.254 2°55.284 12.9 36 18.3 101350 79
2001-08-13 07:50:52 51°14.26 2°55.275 6.8 48 18.3 101350 80
2001-08-13 07:50:57 51°14.266 2°55.265 11.1 324 18.3 101350 80
2001-08-13 07:51:02 51°14.273 2°55.253 9.4 34 18.3 101350 80
2001-08-13 07:51:08 51°14.28 2°55.24 8.6 47 18.3 101350 80
2001-08-13 07:51:12 51°14.285 2°55.231 8.3 323 18.3 101340 80
2001-08-13 07:51:16 51°14.29 2°55.223 10.2 133 18.3 101340 80
2001-08-13 07:51:22 51°14.298 2°55.21 12.1 329 18.3 101350 80
2001-08-13 07:51:27 51°14.304 2°55.199 9.4 42 18.3 101350 80
2001-08-13 07:51:32 51°14.31 2°55.187 11.9 40 18.3 101350 80
2001-08-13 07:51:36 51°14.314 2°55.178 8.6 122 18.3 101350 80
2001-08-13 07:51:42 51°14.322 2°55.165 10.5 130 18.3 101340 80
2001-08-13 07:51:48 51°14.328 2°55.151 11.2 39 18.3 101340 80
2001-08-13 07:51:52 51°14.333 2°55.143 7.9 132 18.3 101340 80
2001-08-13 07:51:58 51°14.34 2°55.129 11 41 18.3 101340 80
2001-08-13 07:52:02 51°14.345 2°55.12 10.5 44 18.2 101340 80
2001-08-13 07:52:08 51°14.352 2°55.107 11.6 56 18.2 101340 80
2001-08-13 07:52:12 51°14.357 2°55.098 14.4 54 18.2 101340 80
2001-08-13 07:52:16 51°14.362 2°55.089 9.5 41 18.2 101340 80
2001-08-13 07:52:22 51°14.37 2°55.076 12.8 49 18.2 101350 81
2001-08-13 07:52:26 51°14.375 2°55.067 13.3 356 18.2 101350 81
2001-08-13 07:52:32 51°14.383 2°55.054 8.6 37 18.2 101340 81
2001-08-13 07:52:36 51°14.388 2°55.045 11.7 35 18.2 101340 81
2001-08-13 07:52:42 51°14.397 2°55.031 10.2 46 18.2 101330 81
2001-08-13 07:52:47 51°14.404 2°55.02 13.2 348 18.2 101330 81
2001-08-13 07:52:52 51°14.411 2°55.009 12.5 35 18.2 101330 81
2001-08-13 07:52:56 51°14.417 2°55 10.8 274 18.2 101330 81
2001-08-13 07:53:02 51°14.426 2°54.987 10.3 352 18.2 101320 81
2001-08-13 07:53:07 51°14.434 2°54.976 11.7 51 18.2 101320 81
2001-08-13 07:53:12 51°14.443 2°54.965 10.6 113 18.2 101330 81
2001-08-13 07:53:16 51°14.45 2°54.955 11.5 327 18.2 101330 81
2001-08-13 07:53:22 51°14.46 2°54.942 12.4 257 18.1 101320 81
2001-08-13 07:53:26 51°14.467 2°54.933 11 60 18.1 101320 81
2001-08-13 07:53:32 51°14.477 2°54.92 10.8 343 18.1 101330 82
2001-08-13 07:53:36 51°14.484 2°54.911 11.7 53 18.1 101330 82
2001-08-13 07:53:42 51°14.496 2°54.899 10 56 18.1 101340 82
2001-08-13 07:53:47 51°14.505 2°54.889 8.6 144 18.1 101340 82
2001-08-13 07:53:52 51°14.515 2°54.88 12.5 352 18.1 101330 82
2001-08-13 07:54:14 51°14.562 2°54.843 10.7 336 18.1 101330 82
2001-08-13 07:54:19 51°14.572 2°54.836 10.7 336 18.1 101330 82
2001-08-13 07:54:23 51°14.58 2°54.83 10.7 336 18.1 101330 82
2001-08-13 07:54:27 51°14.587 2°54.825 10.7 336 18.1 101330 82
2001-08-13 07:54:31 51°14.595 2°54.82 10.7 336 18.1 101330 82
2001-08-13 07:54:34 51°14.6 2°54.817 10.7 336 18.1 101330 82
2001-08-13 07:55:08 51°14.65 2°54.783 4.2 118 18 -999 80
2001-08-13 07:55:14 51°14.658 2°54.778 4.5 8 18 -999 80
2001-08-13 07:55:18 51°14.662 2°54.774 4.8 276 18 -999 82
2001-08-13 07:55:24 51°14.669 2°54.769 4.8 117 18 -999 82
2001-08-13 07:55:28 51°14.673 2°54.766 5.2 155 18 101340 82
2001-08-13 07:55:34 51°14.679 2°54.762 4.4 314 18 101340 82
2001-08-13 07:55:38 51°14.683 2°54.759 6.5 112 18 101340 83
2001-08-13 07:55:44 51°14.688 2°54.755 8.4 92 18 101340 83
2001-08-13 07:55:48 51°14.691 2°54.753 7.1 116 18 101330 83
2001-08-13 07:55:54 51°14.696 2°54.75 9.2 10 18 101330 83
2001-08-13 07:55:58 51°14.7 2°54.748 5 118 18 101340 83
2001-08-13 07:56:04 51°14.705 2°54.746 5.9 134 18 101340 83
2001-08-13 07:56:08 51°14.707 2°54.745 4.8 335 18 101340 83
2001-08-13 07:56:14 51°14.712 2°54.743 2.6 319 18 101340 83
2001-08-13 07:56:18 51°14.714 2°54.742 4.6 357 18 101320 83
2001-08-13 07:56:24 51°14.718 2°54.741 4.8 332 18 101320 83
2001-08-13 07:56:28 51°14.721 2°54.74 5.5 349 17.9 101330 82
2001-08-13 07:56:34 51°14.725 2°54.738 4.4 114 17.9 101330 82
2001-08-13 07:56:38 51°14.727 2°54.737 4.6 142 17.9 101320 83
2001-08-13 07:56:44 51°14.732 2°54.735 6.2 316 17.9 101320 83
2001-08-13 07:56:48 51°14.735 2°54.732 6.8 336 17.9 101340 83
2001-08-13 07:56:54 51°14.74 2°54.728 8.7 324 17.9 101340 83
2001-08-13 07:56:58 51°14.744 2°54.725 5.1 64 17.9 101340 83
2001-08-13 07:57:04 51°14.75 2°54.719 7.8 48 17.9 101340 83
2001-08-13 07:57:09 51°14.755 2°54.713 9.1 61 17.9 101330 83
2001-08-13 07:57:14 51°14.761 2°54.706 8.4 58 17.9 101330 83
2001-08-13 07:57:18 51°14.766 2°54.701 9.8 317 17.9 101330 83
2001-08-13 07:57:24 51°14.774 2°54.693 6.1 352 17.9 101330 83
2001-08-13 07:57:28 51°14.779 2°54.687 8.6 15 17.9 101330 83
2001-08-13 07:57:34 51°14.788 2°54.679 8 82 17.9 101330 83
2001-08-13 07:57:39 51°14.796 2°54.671 8.4 67 17.9 101330 83
2001-08-13 07:57:44 51°14.804 2°54.664 6.1 63 17.9 101330 83
2001-08-13 07:57:48 51°14.811 2°54.658 10.8 348 17.9 101330 83
2001-08-13 07:57:54 51°14.821 2°54.65 9 159 17.9 101330 83
2001-08-13 07:57:58 51°14.827 2°54.644 12.4 203 17.9 101320 84
2001-08-13 07:58:04 51°14.838 2°54.634 10.5 128 17.9 101320 84
2001-08-13 07:58:08 51°14.845 2°54.627 11 321 17.9 101330 84
2001-08-13 07:58:14 51°14.856 2°54.617 8.4 321 17.9 101330 84
2001-08-13 07:58:18 51°14.863 2°54.61 10 359 17.9 101330 83
2001-08-13 07:58:24 51°14.875 2°54.599 8.8 62 17.9 101330 83
2001-08-13 07:58:28 51°14.883 2°54.591 11 53 17.9 101330 84
2001-08-13 07:58:34 51°14.895 2°54.579 9 59 17.9 101330 84
2001-08-13 07:58:38 51°14.904 2°54.572 11.1 321 17.9 101330 84
2001-08-13 07:58:44 51°14.917 2°54.561 10.6 33 17.9 101330 84
2001-08-13 07:58:48 51°14.926 2°54.553 13.2 112 17.9 101330 84
2001-08-13 07:58:54 51°14.94 2°54.541 11.8 64 17.9 101330 84
2001-08-13 07:58:58 51°14.949 2°54.532 11.6 37 17.9 101330 84
2001-08-13 07:59:04 51°14.964 2°54.52 13.2 16 17.9 101330 84
2001-08-13 07:59:09 51°14.976 2°54.509 11.4 65 18 101320 84
2001-08-13 07:59:14 51°14.988 2°54.497 8.8 54 18 101320 84
2001-08-13 07:59:20 51°15.003 2°54.483 11.3 47 18 101320 84
2001-08-13 07:59:24 51°15.014 2°54.473 8.8 39 18 101320 84
2001-08-13 07:59:28 51°15.024 2°54.462 10.8 323 17.9 101310 84
2001-08-13 07:59:34 51°15.04 2°54.446 9.4 327 17.9 101310 84
2001-08-13 07:59:40 51°15.056 2°54.429 12.3 37 18 101330 84
2001-08-13 07:59:44 51°15.068 2°54.418 9.5 51 18 101330 84
2001-08-13 07:59:48 51°15.079 2°54.407 10.8 329 18 101320 84
2001-08-13 07:59:54 51°15.097 2°54.392 13.7 130 18 101320 84
2001-08-13 07:59:59 51°15.111 2°54.38 14.4 35 18 101320 84
2001-08-13 08:00:04 51°15.126 2°54.367 11.8 49 18 101320 84
2001-08-13 08:00:08 51°15.138 2°54.357 11.2 41 18 101310 84
2001-08-13 08:00:14 51°15.155 2°54.34 9.4 48 18 101310 84
2001-08-13 08:00:18 51°15.167 2°54.329 11.9 59 18 101310 84
2001-08-13 08:00:24 51°15.183 2°54.311 10.3 124 18 101310 84
2001-08-13 08:00:28 51°15.194 2°54.298 9.4 317 17.9 101310 84
2001-08-13 08:00:34 51°15.21 2°54.277 9.3 47 17.9 101310 84
2001-08-13 08:00:38 51°15.22 2°54.263 10.9 45 17.9 101310 84
2001-08-13 08:00:44 51°15.236 2°54.245 13.8 38 17.9 101310 84
2001-08-13 08:00:48 51°15.248 2°54.232 13.4 341 17.9 101300 84
2001-08-13 08:00:54 51°15.265 2°54.215 8.7 128 17.9 101300 84
2001-08-13 08:00:59 51°15.279 2°54.201 9.6 36 17.9 101300 84
2001-08-13 08:01:04 51°15.294 2°54.188 12.9 62 17.9 101300 84
2001-08-13 08:01:08 51°15.306 2°54.177 11.2 317 17.9 101310 84
2001-08-13 08:01:14 51°15.325 2°54.162 12.5 45 17.9 101310 84
2001-08-13 08:01:20 51°15.343 2°54.147 8.2 57 17.9 101320 84
2001-08-13 08:01:24 51°15.355 2°54.136 10.1 43 17.9 101320 84
2001-08-13 08:01:28 51°15.367 2°54.124 9.3 37 18 101300 84
2001-08-13 08:01:34 51°15.384 2°54.107 11.4 42 18 101300 84
2001-08-13 08:01:38 51°15.396 2°54.095 11.8 58 18 101300 84
2001-08-13 08:01:44 51°15.413 2°54.076 9.4 46 18 101300 84
2001-08-13 08:01:48 51°15.424 2°54.064 15.9 126 17.9 101310 84
2001-08-13 08:01:54 51°15.44 2°54.044 12.3 321 17.9 101310 84
2001-08-13 08:01:58 51°15.451 2°54.031 9.2 48 17.9 101310 84
2001-08-13 08:02:04 51°15.467 2°54.011 13.3 120 17.9 101310 84
2001-08-13 08:02:08 51°15.478 2°53.998 14.6 29 17.9 101300 84
2001-08-13 08:02:14 51°15.495 2°53.979 12.2 52 17.9 101300 84
2001-08-13 08:02:18 51°15.507 2°53.968 15.4 319 17.9 101300 84
2001-08-13 08:02:24 51°15.525 2°53.951 10.2 51 17.9 101300 84
2001-08-13 08:02:28 51°15.537 2°53.94 13.5 56 17.9 101300 84
2001-08-13 08:02:34 51°15.555 2°53.923 15.3 34 17.9 101300 84
2001-08-13 08:02:39 51°15.57 2°53.908 10.1 33 17.9 101300 83
2001-08-13 08:02:44 51°15.586 2°53.892 12.8 52 17.9 101300 83
2001-08-13 08:02:48 51°15.598 2°53.88 9.8 119 17.9 101320 83
2001-08-13 08:02:54 51°15.616 2°53.862 9 44 17.9 101320 83
2001-08-13 08:02:58 51°15.628 2°53.85 9.4 51 17.9 101320 84
2001-08-13 08:03:04 51°15.646 2°53.83 15.9 329 17.9 101320 84
2001-08-13 08:03:08 51°15.657 2°53.817 9.2 42 17.9 101320 84
2001-08-13 08:03:14 51°15.675 2°53.799 12 51 17.9 101320 84
2001-08-13 08:03:18 51°15.687 2°53.787 13.8 49 17.9 101310 84
2001-08-13 08:03:24 51°15.706 2°53.769 13 27 17.9 101310 84
2001-08-13 08:03:28 51°15.719 2°53.759 15 64 17.9 101300 84
2001-08-13 08:03:34 51°15.738 2°53.743 14 119 17.9 101300 84
2001-08-13 08:03:39 51°15.754 2°53.729 15.6 43 17.9 101310 84
2001-08-13 08:03:44 51°15.77 2°53.715 11.4 67 17.9 101310 84
2001-08-13 08:03:48 51°15.783 2°53.703 11.3 49 17.9 101310 84
2001-08-13 08:03:54 51°15.802 2°53.687 9.4 39 17.9 101310 84
2001-08-13 08:03:58 51°15.814 2°53.676 14.5 31 17.8 101310 84
2001-08-13 08:04:04 51°15.834 2°53.66 14.3 64 17.8 101310 84
2001-08-13 08:04:08 51°15.847 2°53.65 14 341 17.9 101310 84
2001-08-13 08:04:14 51°15.866 2°53.637 11.3 203 17.9 101310 84
2001-08-13 08:04:18 51°15.878 2°53.629 9.1 306 17.9 101320 84
2001-08-13 08:04:24 51°15.897 2°53.617 11.8 315 17.9 101320 84
2001-08-13 08:04:28 51°15.908 2°53.608 13.7 19 17.9 101320 84
2001-08-13 08:04:34 51°15.926 2°53.595 8.7 51 17.9 101320 84
2001-08-13 08:04:39 51°15.94 2°53.584 10.2 59 17.9 101320 84
2001-08-13 08:04:44 51°15.953 2°53.573 13.8 31 17.9 101320 84
2001-08-13 08:04:48 51°15.964 2°53.564 13.5 323 17.9 101330 84
2001-08-13 08:04:54 51°15.98 2°53.55 12.5 58 17.9 101330 84
2001-08-13 08:04:58 51°15.991 2°53.541 8.6 319 17.8 101340 84
2001-08-13 08:05:04 51°16.006 2°53.526 11.9 44 17.8 101340 84
2001-08-13 08:05:08 51°16.016 2°53.516 12 48 17.8 101310 84
2001-08-13 08:05:14 51°16.03 2°53.501 14.5 8 17.8 101310 84
2001-08-13 08:05:19 51°16.043 2°53.487 12.6 355 17.8 101320 84
2001-08-13 08:05:24 51°16.056 2°53.474 13.5 54 17.8 101320 84
2001-08-13 08:05:28 51°16.067 2°53.465 11.8 47 17.8 101320 84
2001-08-13 08:05:34 51°16.084 2°53.451 14.3 53 17.8 101320 84
2001-08-13 08:05:38 51°16.096 2°53.442 11.5 56 17.9 101320 84
2001-08-13 08:05:44 51°16.114 2°53.427 13.1 35 17.9 101320 84
2001-08-13 08:05:48 51°16.126 2°53.417 8.5 53 17.9 101330 84
2001-08-13 08:05:54 51°16.143 2°53.4 10.3 41 17.9 101330 84
2001-08-13 08:05:59 51°16.158 2°53.385 12.2 52 17.9 101330 84
2001-08-13 08:06:04 51°16.172 2°53.369 11.6 125 17.9 101330 84
2001-08-13 08:06:08 51°16.184 2°53.356 10.3 40 17.8 101320 84
2001-08-13 08:06:14 51°16.202 2°53.337 13.5 59 17.8 101320 84
2001-08-13 08:06:19 51°16.217 2°53.321 11.8 46 17.8 101330 84
2001-08-13 08:06:24 51°16.232 2°53.304 16.9 128 17.8 101330 84
2001-08-13 08:06:28 51°16.244 2°53.291 10 50 17.8 101320 84
2001-08-13 08:06:34 51°16.262 2°53.271 10.3 45 17.8 101320 84
2001-08-13 08:06:38 51°16.274 2°53.259 11.9 38 17.8 101300 84
2001-08-13 08:06:44 51°16.292 2°53.241 7.9 49 17.8 101300 84
2001-08-13 08:06:48 51°16.305 2°53.228 15.3 122 17.8 101330 84
2001-08-13 08:06:54 51°16.323 2°53.21 10.1 41 17.8 101330 84
2001-08-13 08:06:58 51°16.335 2°53.197 9.9 49 17.8 101320 84
2001-08-13 08:07:04 51°16.355 2°53.18 11.9 316 17.8 101320 84
2001-08-13 08:07:09 51°16.37 2°53.165 8.4 42 17.8 101320 84
2001-08-13 08:07:14 51°16.386 2°53.15 11.4 58 17.8 101320 84
2001-08-13 08:07:18 51°16.398 2°53.138 12.4 46 17.8 101310 84
2001-08-13 08:07:24 51°16.417 2°53.12 11.7 40 17.8 101310 84
2001-08-13 08:07:29 51°16.433 2°53.105 13.9 51 17.8 101320 84
2001-08-13 08:07:34 51°16.448 2°53.09 14.7 15 17.8 101320 84
2001-08-13 08:07:38 51°16.461 2°53.078 12 38 17.8 101320 84
2001-08-13 08:07:44 51°16.479 2°53.06 10.4 51 17.8 101320 84
2001-08-13 08:07:48 51°16.492 2°53.047 14.6 123 17.8 101330 84
2001-08-13 08:07:54 51°16.511 2°53.028 11.6 43 17.8 101330 84
2001-08-13 08:07:59 51°16.526 2°53.012 15 38 17.8 101310 84
2001-08-13 08:08:04 51°16.541 2°52.997 11.3 107 17.8 101310 84
2001-08-13 08:08:08 51°16.554 2°52.986 12.4 333 17.8 101320 84
2001-08-13 08:08:14 51°16.573 2°52.968 10 129 17.8 101320 84
2001-08-13 08:08:18 51°16.586 2°52.957 7 45 17.8 101320 84
2001-08-13 08:08:24 51°16.604 2°52.94 13.7 26 17.8 101320 84
2001-08-13 08:08:28 51°16.617 2°52.929 15.1 22 17.8 101310 84
2001-08-13 08:08:34 51°16.637 2°52.912 8.7 62 17.8 101310 84
2001-08-13 08:08:39 51°16.653 2°52.897 8.3 127 17.8 101330 85
2001-08-13 08:08:44 51°16.668 2°52.881 11.3 42 17.8 101330 85
2001-08-13 08:08:48 51°16.68 2°52.869 12.9 133 17.8 101310 85
2001-08-13 08:08:54 51°16.699 2°52.85 14.7 121 17.8 101310 85
2001-08-13 08:09:00 51°16.717 2°52.831 14 31 17.8 101320 85
2001-08-13 08:09:04 51°16.73 2°52.819 9.5 38 17.8 101320 85
2001-08-13 08:09:08 51°16.743 2°52.808 12.6 64 17.8 101320 85
2001-08-13 08:09:14 51°16.762 2°52.792 12.3 31 17.8 101320 85
2001-08-13 08:09:19 51°16.779 2°52.779 9.5 32 17.8 101320 85
2001-08-13 08:09:24 51°16.796 2°52.766 11.9 59 17.8 101320 85
2001-08-13 08:09:28 51°16.809 2°52.756 11.7 337 17.8 101310 84
2001-08-13 08:09:34 51°16.829 2°52.741 11.4 129 17.8 101310 84
2001-08-13 08:09:38 51°16.843 2°52.731 10 49 17.8 101330 85
2001-08-13 08:09:44 51°16.863 2°52.716 8.9 46 17.8 101330 85
2001-08-13 08:09:48 51°16.876 2°52.705 13 40 17.8 101330 85
2001-08-13 08:09:54 51°16.896 2°52.691 9.8 29 17.8 101330 85
2001-08-13 08:10:00 51°16.917 2°52.677 7.2 56 17.8 101320 85
2001-08-13 08:10:04 51°16.931 2°52.668 10.7 344 17.8 101320 85
2001-08-13 08:10:10 51°16.952 2°52.656 10.3 10 17.8 101330 85
2001-08-13 08:10:14 51°16.966 2°52.647 9.8 50 17.8 101330 85
2001-08-13 08:10:18 51°16.98 2°52.637 9.6 37 17.8 101330 85
2001-08-13 08:10:24 51°17 2°52.622 10.7 39 17.8 101330 85
2001-08-13 08:10:28 51°17.013 2°52.611 13 41 17.8 101330 85
2001-08-13 08:10:34 51°17.033 2°52.594 14.9 47 17.8 101330 85
2001-08-13 08:10:38 51°17.045 2°52.582 14.8 44 17.8 101320 85
2001-08-13 08:10:44 51°17.064 2°52.564 11.5 43 17.8 101320 85
2001-08-13 08:10:48 51°17.077 2°52.554 13.1 48 17.8 101310 85
2001-08-13 08:10:54 51°17.097 2°52.537 14.3 122 17.8 101310 85
2001-08-13 08:10:59 51°17.113 2°52.523 12.5 27 17.8 101320 85
2001-08-13 08:11:04 51°17.13 2°52.508 10.9 119 17.8 101320 85
2001-08-13 08:11:08 51°17.142 2°52.497 9.5 126 17.8 101310 85
2001-08-13 08:11:14 51°17.162 2°52.479 15.3 49 17.8 101310 85
2001-08-13 08:11:18 51°17.175 2°52.468 13.2 59 17.8 101330 85
2001-08-13 08:11:24 51°17.195 2°52.451 12.2 320 17.8 101330 85
2001-08-13 08:11:28 51°17.208 2°52.44 14.4 24 17.8 101320 85
2001-08-13 08:11:34 51°17.228 2°52.422 13.3 48 17.8 101320 85
2001-08-13 08:11:38 51°17.24 2°52.411 12.9 265 17.8 101310 85
2001-08-13 08:11:44 51°17.259 2°52.392 11.7 22 17.8 101310 85
2001-08-13 08:11:48 51°17.271 2°52.38 13.3 52 17.8 101320 85
2001-08-13 08:11:54 51°17.29 2°52.361 10.4 346 17.8 101320 85
2001-08-13 08:11:58 51°17.303 2°52.349 11.6 32 17.8 101300 84
2001-08-13 08:12:04 51°17.322 2°52.332 10.9 74 17.8 101300 84
2001-08-13 08:12:08 51°17.336 2°52.32 12.8 330 17.8 101310 85
2001-08-13 08:12:14 51°17.355 2°52.304 12.7 347 17.8 101310 85
2001-08-13 08:12:20 51°17.375 2°52.287 12.8 33 17.8 101310 85
2001-08-13 08:12:24 51°17.389 2°52.277 8.7 332 17.8 101310 85
2001-08-13 08:12:28 51°17.402 2°52.266 8.8 40 17.8 101320 85
2001-08-13 08:12:34 51°17.421 2°52.248 8.5 52 17.8 101320 85
2001-08-13 08:12:38 51°17.434 2°52.235 11.9 49 17.8 101320 85
2001-08-13 08:12:44 51°17.453 2°52.215 7.6 36 17.8 101320 85
2001-08-13 08:12:48 51°17.466 2°52.202 14.5 39 17.8 101340 85
2001-08-13 08:12:54 51°17.484 2°52.183 14.4 115 17.8 101340 85
2001-08-13 08:12:58 51°17.497 2°52.17 13.5 50 17.8 101320 85
2001-08-13 08:13:04 51°17.516 2°52.152 16.3 9 17.8 101320 85
2001-08-13 08:13:09 51°17.532 2°52.137 14.1 121 17.8 101320 85
2001-08-13 08:13:14 51°17.548 2°52.121 15.7 324 17.8 101320 85
2001-08-13 08:13:19 51°17.563 2°52.104 12.3 48 17.7 101320 84
2001-08-13 08:13:24 51°17.579 2°52.088 9.5 43 17.7 101320 84
2001-08-13 08:13:28 51°17.591 2°52.074 16.7 45 17.8 101290 84
2001-08-13 08:13:34 51°17.608 2°52.052 10.8 41 17.8 101290 84
2001-08-13 08:13:38 51°17.619 2°52.037 10.6 45 17.8 101300 85
2001-08-13 08:13:44 51°17.635 2°52.013 15.2 133 17.8 101300 85
2001-08-13 08:13:50 51°17.652 2°51.989 12.6 317 17.8 101330 85
2001-08-13 08:13:54 51°17.663 2°51.973 12.7 42 17.8 101330 85
2001-08-13 08:13:58 51°17.673 2°51.957 10 320 17.8 101320 85
2001-08-13 08:14:04 51°17.689 2°51.933 10.3 131 17.8 101320 85
2001-08-13 08:14:08 51°17.7 2°51.916 14.3 319 17.8 101330 85
2001-08-13 08:14:14 51°17.715 2°51.892 9.2 125 17.8 101330 85
2001-08-13 08:14:18 51°17.726 2°51.875 11.6 41 17.8 101310 85
2001-08-13 08:14:24 51°17.741 2°51.85 17.3 323 17.8 101310 85
2001-08-13 08:14:28 51°17.751 2°51.833 13.9 42 17.8 101310 85
2001-08-13 08:14:34 51°17.766 2°51.807 14.2 43 17.8 101310 85
2001-08-13 08:14:40 51°17.78 2°51.782 12.4 132 17.8 101310 85
2001-08-13 08:14:44 51°17.79 2°51.765 16.1 321 17.8 101310 85
2001-08-13 08:14:49 51°17.802 2°51.743 10.8 322 17.8 101310 85
2001-08-13 08:14:54 51°17.814 2°51.723 13.2 44 17.8 101310 85
2001-08-13 08:15:00 51°17.829 2°51.699 10.8 39 17.8 101300 85
2001-08-13 08:15:05 51°17.841 2°51.679 16 44 17.8 101300 85
2001-08-13 08:15:10 51°17.853 2°51.659 15.5 39 17.8 101300 85
2001-08-13 08:15:14 51°17.863 2°51.643 12.2 49 17.8 101300 85
2001-08-13 08:15:18 51°17.872 2°51.626 16.5 319 17.8 101300 85
2001-08-13 08:15:24 51°17.886 2°51.6 16.4 44 17.8 101300 85
2001-08-13 08:15:28 51°17.895 2°51.582 14.1 131 17.8 101310 85
2001-08-13 08:15:34 51°17.909 2°51.556 10.1 32 17.8 101310 85
2001-08-13 08:15:38 51°17.919 2°51.54 15.1 44 17.8 101300 85
2001-08-13 08:15:44 51°17.934 2°51.517 7.2 42 17.8 101300 85
2001-08-13 08:15:50 51°17.949 2°51.493 10.6 48 17.8 101300 85
2001-08-13 08:15:54 51°17.96 2°51.476 11.3 44 17.8 101300 85
2001-08-13 08:15:58 51°17.97 2°51.46 12.8 44 17.8 101300 85
2001-08-13 08:16:04 51°17.985 2°51.435 13.5 321 17.8 101300 85
2001-08-13 08:16:08 51°17.995 2°51.419 10.6 39 17.7 101310 85
2001-08-13 08:16:14 51°18.011 2°51.394 14.5 322 17.7 101310 85
2001-08-13 08:16:18 51°18.021 2°51.377 10.4 131 17.8 101310 85
2001-08-13 08:16:24 51°18.035 2°51.352 18.6 43 17.8 101310 85
2001-08-13 08:16:28 51°18.045 2°51.335 16.3 43 17.8 101310 85
2001-08-13 08:16:34 51°18.059 2°51.309 16.8 40 17.8 101310 85
2001-08-13 08:16:38 51°18.069 2°51.291 18 43 17.8 101300 85
2001-08-13 08:16:44 51°18.083 2°51.266 17.9 45 17.8 101300 85
2001-08-13 08:16:48 51°18.093 2°51.249 16.7 45 17.8 101310 85
2001-08-13 08:16:54 51°18.107 2°51.223 19.5 42 17.8 101310 85
2001-08-13 08:16:58 51°18.116 2°51.205 22.2 42 17.8 101320 85
2001-08-13 08:17:04 51°18.129 2°51.178 16.9 35 17.8 101320 85
2001-08-13 08:17:09 51°18.138 2°51.155 16.5 37 17.8 101320 85
2001-08-13 08:17:14 51°18.148 2°51.132 17.6 44 17.8 101320 85
2001-08-13 08:17:18 51°18.156 2°51.113 16.5 32 17.8 101300 85
2001-08-13 08:17:24 51°18.167 2°51.085 19.4 40 17.8 101300 85
2001-08-13 08:17:28 51°18.175 2°51.066 19.6 38 17.8 101300 85
2001-08-13 08:17:34 51°18.186 2°51.037 21.4 39 17.8 101300 85
2001-08-13 08:17:38 51°18.194 2°51.018 19.2 43 17.8 101310 85
2001-08-13 08:17:44 51°18.206 2°50.99 19.1 323 17.8 101310 85
2001-08-13 08:17:48 51°18.214 2°50.971 13.5 39 17.8 101310 85
2001-08-13 08:17:54 51°18.226 2°50.941 18.1 44 17.8 101310 85
2001-08-13 08:17:58 51°18.233 2°50.922 22.4 36 17.8 101300 85
2001-08-13 08:18:04 51°18.245 2°50.893 17.4 42 17.8 101300 85
2001-08-13 08:18:08 51°18.253 2°50.874 17.4 42 17.8 101290 85
2001-08-13 08:18:14 51°18.266 2°50.846 20.8 44 17.8 101290 85
2001-08-13 08:18:18 51°18.273 2°50.828 19.3 46 17.8 101310 85
2001-08-13 08:18:24 51°18.286 2°50.802 23.6 32 17.8 101310 85
2001-08-13 08:18:28 51°18.294 2°50.784 23.1 37 17.8 101320 85
2001-08-13 08:18:34 51°18.306 2°50.757 17.6 37 17.8 101320 85
2001-08-13 08:18:38 51°18.312 2°50.737 21 31 17.8 101300 85
2001-08-13 08:18:44 51°18.322 2°50.708 23.4 36 17.8 101300 85
2001-08-13 08:18:48 51°18.328 2°50.687 26.9 34 17.8 101320 85
2001-08-13 08:18:54 51°18.337 2°50.658 22 37 17.8 101320 85
2001-08-13 08:18:58 51°18.343 2°50.638 17.7 134 17.8 101310 85
2001-08-13 08:19:04 51°18.354 2°50.61 22.7 32 17.8 101310 85
2001-08-13 08:19:09 51°18.363 2°50.587 17 43 17.8 101310 85
2001-08-13 08:19:14 51°18.373 2°50.564 18.9 41 17.8 101310 85
2001-08-13 08:19:18 51°18.381 2°50.546 14.8 317 17.8 101280 85
2001-08-13 08:19:24 51°18.394 2°50.52 9.1 43 17.8 101280 85
2001-08-13 08:19:28 51°18.403 2°50.502 11.5 46 17.8 101300 85
2001-08-13 08:19:34 51°18.417 2°50.475 18.8 42 17.8 101300 85
2001-08-13 08:19:39 51°18.429 2°50.454 15.4 322 17.8 101290 85
2001-08-13 08:19:44 51°18.442 2°50.434 12.7 45 17.8 101290 85
2001-08-13 08:19:48 51°18.452 2°50.417 14.5 38 17.8 101310 85
2001-08-13 08:19:54 51°18.466 2°50.391 17.8 42 17.8 101310 85
2001-08-13 08:19:59 51°18.477 2°50.368 17.6 40 17.8 101310 86
2001-08-13 08:20:04 51°18.488 2°50.344 21.3 40 17.8 101310 86
2001-08-13 08:20:08 51°18.495 2°50.325 23.2 31 17.8 101320 86
2001-08-13 08:20:14 51°18.504 2°50.295 22.1 31 17.8 101320 86
2001-08-13 08:20:18 51°18.51 2°50.275 23 23 17.8 101320 86
2001-08-13 08:20:24 51°18.516 2°50.244 21.2 28 17.8 101320 86
2001-08-13 08:20:28 51°18.52 2°50.224 25.8 32 17.8 101320 85
2001-08-13 08:20:34 51°18.528 2°50.194 21 23 17.8 101320 85
2001-08-13 08:20:40 51°18.534 2°50.162 22.6 30 17.8 101310 85
2001-08-13 08:20:44 51°18.538 2°50.141 21 27 17.8 101310 85
2001-08-13 08:20:48 51°18.542 2°50.12 20 32 17.8 101310 85
2001-08-13 08:20:54 51°18.548 2°50.088 22.4 29 17.8 101310 85
2001-08-13 08:20:58 51°18.552 2°50.067 22.3 29 17.8 101310 85
2001-08-13 08:21:04 51°18.559 2°50.035 23.4 26 17.8 101310 85
2001-08-13 08:21:08 51°18.563 2°50.014 21.7 29 17.8 101310 86
2001-08-13 08:21:14 51°18.569 2°49.982 21.1 26 17.8 101310 86
2001-08-13 08:21:18 51°18.573 2°49.961 20.6 29 17.8 101300 86
2001-08-13 08:21:24 51°18.579 2°49.929 22.2 29 17.8 101300 86
2001-08-13 08:21:28 51°18.583 2°49.908 24 33 17.8 101310 86
2001-08-13 08:21:34 51°18.59 2°49.876 20.3 25 17.8 101310 86
2001-08-13 08:21:38 51°18.595 2°49.855 23.9 35 17.8 101310 86
2001-08-13 08:21:44 51°18.602 2°49.824 22.4 26 17.8 101310 86
2001-08-13 08:21:48 51°18.606 2°49.803 22.3 29 17.8 101310 86
2001-08-13 08:21:54 51°18.612 2°49.772 21.3 24 17.8 101310 86
2001-08-13 08:21:58 51°18.616 2°49.751 20.7 32 17.8 101330 86
2001-08-13 08:22:04 51°18.621 2°49.719 20.8 25 17.8 101330 86
2001-08-13 08:22:09 51°18.626 2°49.693 23.7 29 17.8 101310 86
2001-08-13 08:22:14 51°18.631 2°49.667 25.9 30 17.8 101310 86
2001-08-13 08:22:18 51°18.636 2°49.647 23 29 17.8 101320 86
2001-08-13 08:22:24 51°18.643 2°49.617 23.1 30 17.8 101320 86
2001-08-13 08:22:28 51°18.648 2°49.596 24.7 33 17.8 101300 86
2001-08-13 08:22:34 51°18.654 2°49.565 21 29 17.8 101300 86
2001-08-13 08:22:38 51°18.657 2°49.544 22.5 29 17.8 101310 86
2001-08-13 08:22:44 51°18.661 2°49.512 23 27 17.8 101310 86
2001-08-13 08:22:49 51°18.665 2°49.485 24.1 29 17.8 101330 86
2001-08-13 08:22:54 51°18.671 2°49.46 26.3 29 17.8 101330 86
2001-08-13 08:22:58 51°18.675 2°49.439 26.8 34 17.8 101310 86
2001-08-13 08:23:04 51°18.682 2°49.407 26 32 17.8 101310 86
2001-08-13 08:23:08 51°18.687 2°49.386 22.3 32 17.7 101320 86
2001-08-13 08:23:14 51°18.694 2°49.355 23.8 43 17.7 101320 86
2001-08-13 08:23:18 51°18.699 2°49.333 24.3 27 17.7 101290 86
2001-08-13 08:23:24 51°18.706 2°49.302 25.4 34 17.7 101290 86
2001-08-13 08:23:30 51°18.712 2°49.27 21 25 17.7 101310 86
2001-08-13 08:23:34 51°18.716 2°49.248 22.1 33 17.7 101310 86
2001-08-13 08:23:38 51°18.72 2°49.227 23.2 24 17.7 101310 86
2001-08-13 08:23:44 51°18.726 2°49.195 23.1 27 17.7 101310 86
2001-08-13 08:23:48 51°18.731 2°49.174 26.2 32 17.7 101300 86
2001-08-13 08:23:54 51°18.738 2°49.143 23.9 38 17.7 101300 86
2001-08-13 08:23:59 51°18.745 2°49.117 24.2 30 17.7 101310 86
2001-08-13 08:24:04 51°18.752 2°49.09 23.2 34 17.7 101310 86
2001-08-13 08:24:10 51°18.76 2°49.059 21.5 30 17.7 101300 86
2001-08-13 08:24:14 51°18.764 2°49.037 26 38 17.7 101300 86
2001-08-13 08:24:18 51°18.769 2°49.016 26.2 34 17.7 101300 86
2001-08-13 08:24:24 51°18.777 2°48.984 26.3 35 17.7 101300 86
2001-08-13 08:24:30 51°18.784 2°48.953 22.1 30 17.7 101320 86
2001-08-13 08:24:34 51°18.789 2°48.933 24.6 33 17.7 101320 86
2001-08-13 08:24:40 51°18.798 2°48.902 24.9 37 17.7 101300 86
2001-08-13 08:24:44 51°18.803 2°48.882 24.1 36 17.7 101300 86